HST 1 20580U 90037B 26122.10724903 .00007452 00000+0 23974-3 0 9998 2 20580 28.4762 35.3793 0001859 0.1787 359.8810 15.30238348781504 POLAR 1 23802U 96013A 26121.05325193 .00000031 00000+0 00000+0 0 9996 2 23802 79.8077 227.5990 6423177 210.6950 87.0184 1.29845840144246 SWAS 1 25560U 98071A 26122.02572163 .00003961 00000+0 25424-3 0 9990 2 25560 69.8973 346.5327 0007643 304.0224 56.0214 15.09303062490300 CXO 1 25867U 99040B 26124.41836995 .00000649 00000+0 00000+0 0 9997 2 25867 55.4609 117.9254 7906762 310.5237 359.9228 0.37801428 17151 XMM-NEWTON 1 25989U 99066A 26123.47149006 .00000033 00000+0 00000+0 0 9992 2 25989 64.7152 283.5560 4687568 65.6998 0.1354 0.50130428 22770 TERRA 1 25994U 99068A 26122.12697389 .00000398 00000+0 90052-4 0 9998 2 25994 97.9494 173.4912 0002884 43.8397 341.8504 14.61065741402888 CLUSTER II-FM7 (SAMBA) 1 26410U 00041A 26123.51430236 .00003227 00000+0 00000+0 0 9998 2 26410 149.7201 43.1034 8995934 259.7563 0.6740 0.44862034 20110 CLUSTER II-FM8 (TANGO) 1 26464U 00045B 26121.13459255 .00002884 00000+0 00000+0 0 9997 2 26464 149.9674 43.7125 9000108 260.1784 0.5507 0.44400441 20080 ODIN 1 26702U 01007A 26122.05139946 .00082377 00000+0 86543-3 0 9990 2 26702 97.3947 160.4645 0000661 359.5056 0.6202 15.64075391382161 TIMED 1 26998U 01055B 26122.04266566 .00001130 00000+0 10648-3 0 9999 2 26998 74.0677 327.9251 0001488 202.8877 157.2242 14.95181997323927 CORIOLIS 1 27640U 03001A 26122.04242122 .00000112 00000+0 73044-4 0 9998 2 27640 98.7140 129.6298 0013763 350.8583 9.2341 14.19931795207679 SORCE 1 27651U 03004A 26122.11073069 .00002993 00000+0 22632-3 0 9998 2 27651 39.9892 164.5084 0015950 80.7035 279.5562 15.03459628264960 MOST 1 27843U 03031D 26121.96050079 .00000070 00000+0 52219-4 0 9998 2 27843 98.7059 130.3295 0010426 31.8516 328.3290 14.21312691184149 SCISAT 1 1 27858U 03036A 26121.96705527 .00000727 00000+0 97547-4 0 9996 2 27858 73.9292 263.1700 0007841 329.3918 30.6800 14.81395521224608 SWIFT 1 28485U 04047A 26121.81579155 .00046485 00000+0 45797-3 0 9996 2 28485 20.5517 181.3990 0002478 47.2235 312.8418 15.64121979179586 HINODE (SOLAR-B) 1 29479U 06041A 26122.05905447 .00000760 00000+0 13901-3 0 9998 2 29479 98.0572 138.8892 0018909 75.9729 284.3577 14.68555357 48107 SHIJIAN-6 02A (SJ-6 02A) 1 29505U 06046A 26122.17226476 .00006084 00000+0 31655-3 0 9995 2 29505 97.6401 162.9027 0001709 323.5100 36.6016 15.16416344 65297 SHIJIAN-6 02B (SJ-6 02B) 1 29506U 06046B 26122.22444412 .00002173 00000+0 17376-3 0 9993 2 29506 97.7141 151.5706 0010975 216.1453 143.9030 15.01239510 63840 FGRST (GLAST) 1 33053U 08029A 26122.19342024 .00003626 00000+0 13308-3 0 9995 2 33053 25.5805 163.7749 0008567 141.7526 218.3621 15.23699017988810 SDO 1 36395U 10005A 26121.41221788 -.00000059 00000+0 00000+0 0 9990 2 36395 34.5566 87.0466 0001028 27.9299 150.9756 1.00272970 59596 CRYOSAT 2 1 36508U 10013A 26122.18069110 .00000239 00000+0 58540-4 0 9995 2 36508 92.0298 266.1331 0002664 90.9919 269.1594 14.51908062851401 X-SAT 1 37389U 11015C 26122.24076770 .00000014 00000+0 23487-4 0 9996 2 37389 98.3483 101.4609 0015042 115.1039 245.1704 14.25192079781133 GCOM-W1 (SHIZUKU) 1 38337U 12025A 26122.08300663 .00000500 00000+0 12087-3 0 9998 2 38337 98.2001 63.3447 0001358 94.5337 275.9693 14.57126169742322 NUSTAR 1 38358U 12031A 26122.25003471 .00024580 00000+0 14764-2 0 9991 2 38358 6.0285 18.5828 0007624 155.8536 332.0490 15.08357129 5371 NEOSSAT 1 39089U 13009D 26122.07682293 .00000152 00000+0 67174-4 0 9998 2 39089 98.4168 303.2080 0011542 29.7094 330.4746 14.35810173690125 BRITE-AUSTRIA 1 39091U 13009F 26121.95903803 .00000184 00000+0 77173-4 0 9995 2 39091 98.3985 302.5413 0010622 24.8348 335.3348 14.36523231690413 IRIS 1 39197U 13033A 26122.10209000 .00001118 00000+0 13430-3 0 9998 2 39197 97.9363 321.5194 0025842 108.7727 251.6295 14.85788531693532 HISAKI (SPRINT-A) 1 39253U 13049A 26122.17185543 .00000131 00000+0 92411-4 0 9991 2 39253 29.7192 93.9511 0136583 3.8380 356.3215 13.55538824625170 CASSIOPE 1 39265U 13055A 26122.11711124 .00028169 -43333-6 32634-3 0 9990 2 39265 80.9128 122.5141 0302414 216.9400 141.0670 15.22058476660659 STSAT-3 1 39422U 13066G 26122.16372398 .00003592 00000+0 27487-3 0 9997 2 39422 97.6181 92.8273 0009450 172.0415 188.0961 15.02487090677293 SWARM B 1 39451U 13067A 26122.17169051 .00003685 00000+0 13261-3 0 9999 2 39451 87.7471 356.2918 0002477 96.6952 263.4579 15.28281197676211 SWARM A 1 39452U 13067B 26122.13635153 .00014013 00000+0 24935-3 0 9994 2 39452 87.3322 73.3303 0003627 88.9563 271.2113 15.50002416699113 SWARM C 1 39453U 13067C 26122.13628544 .00012964 00000+0 23065-3 0 9997 2 39453 87.3324 71.9118 0003640 88.4539 271.7138 15.50002677699073 BRITE-CA1 (TORONTO) 1 40020U 14033L 26122.10652233 .00000961 00000+0 15158-3 0 9990 2 40020 97.9668 251.9041 0079907 64.9700 295.9777 14.72610234635430 OCO 2 1 40059U 14035A 26122.14622774 .00000934 00000+0 21739-3 0 9997 2 40059 98.1996 64.1489 0001305 87.1556 272.9792 14.57072659629343 BRITE-PL2 (HEWELIUSZ) 1 40119U 14049B 26122.04156248 .00002260 00000+0 21497-3 0 9991 2 40119 97.9040 233.7055 0012726 261.2690 98.7088 14.94418111634552 MMS 1 1 40482U 15011A 26122.16670139 -.00000505 00000+0 00000+0 0 9991 2 40482 71.5443 349.4227 8363226 166.4432 283.9466 0.28396118 1378 MMS 2 1 40483U 15011B 26122.25003471 -.00000509 00000+0 00000+0 0 9995 2 40483 71.5427 349.4232 8363209 166.4549 292.4091 0.28408511 1377 MMS 3 1 40484U 15011C 26122.25003471 -.00000509 00000+0 00000+0 0 9996 2 40484 71.5458 349.4279 8362506 166.4462 292.4218 0.28403924 1370 MMS 4 1 40485U 15011D 26122.16670139 -.00000506 00000+0 00000+0 0 9995 2 40485 71.5442 349.4249 8362772 166.4509 283.9219 0.28396056 1371 ASTROSAT 1 40930U 15052A 26121.87328383 .00001725 00000+0 12859-3 0 9995 2 40930 5.9961 128.6920 0007437 93.8805 266.2173 14.82425599572943 DAMPE 1 41173U 15078A 26122.14742219 .00001485 00000+0 52660-4 0 9990 2 41173 97.4565 127.3909 0010394 235.8912 124.1343 15.30668787577505 PISAT 1 41784U 16059B 26121.96041962 .00001049 00000+0 18637-3 0 9995 2 41784 97.8185 124.4024 0028909 356.3687 3.7305 14.68899361512952 HXMT (HUIYAN) 1 42758U 17034A 26122.21416574 .00005314 00000+0 26432-3 0 9996 2 42758 43.0143 78.9446 0032377 215.6394 144.2292 15.18052771490670 FLYING LAPTOP 1 42831U 17042G 26122.18686808 .00002455 00000+0 19706-3 0 9991 2 42831 97.4482 279.5571 0017772 281.1899 78.7328 15.00847888479556 ZHANGHENG 1-01 (CSES-1) 1 43194U 18015C 26122.21376416 .00009182 00000+0 41840-3 0 9998 2 43194 97.6831 286.9667 0017692 65.9892 294.3192 15.20760300457656 SALSAT 1 46495U 20068K 26121.95553892 .00008889 00000+0 31684-3 0 9999 2 46495 97.8856 122.2320 0011687 103.2556 256.9987 15.29110637308293 IXPE 1 49954U 21121A 26122.16670139 .00017997 00000+0 10223-2 0 9996 2 49954 0.2322 305.6240 0006783 103.7390 263.3126 15.09823217 5713